Year,Month,Day,Hour,Minute,Value (Times are PST for temperature in C)
2008,08,23,00,00,15.40
2008,08,23,00,01,15.40
2008,08,23,00,02,15.40
2008,08,23,00,03,15.40
2008,08,23,00,04,15.40
2008,08,23,00,05,15.40
2008,08,23,00,06,15.40
2008,08,23,00,07,15.40
2008,08,23,00,08,15.40
2008,08,23,00,09,15.40
2008,08,23,00,10,15.40
2008,08,23,00,11,15.40
2008,08,23,00,12,15.40
2008,08,23,00,13,15.40
2008,08,23,00,14,15.40
2008,08,23,00,15,15.40
2008,08,23,00,16,15.30
2008,08,23,00,17,15.30
2008,08,23,00,18,15.30
2008,08,23,00,19,15.30
2008,08,23,00,20,15.30
2008,08,23,00,21,15.30
2008,08,23,00,22,15.30
2008,08,23,00,23,15.30
2008,08,23,00,24,15.30
2008,08,23,00,25,15.30
2008,08,23,00,26,15.30
2008,08,23,00,27,15.30
2008,08,23,00,28,15.20
2008,08,23,00,29,15.20
2008,08,23,00,30,15.20
2008,08,23,00,31,15.20
2008,08,23,00,32,15.20
2008,08,23,00,33,15.20
2008,08,23,00,34,15.20
2008,08,23,00,35,15.20
2008,08,23,00,36,15.20
2008,08,23,00,37,15.20
2008,08,23,00,38,15.20
2008,08,23,00,39,15.20
2008,08,23,00,40,15.20
2008,08,23,00,41,15.20
2008,08,23,00,42,15.20
2008,08,23,00,43,15.20
2008,08,23,00,44,15.20
2008,08,23,00,45,15.10
2008,08,23,00,46,15.10
2008,08,23,00,47,15.10
2008,08,23,00,48,15.10
2008,08,23,00,49,15.10
2008,08,23,00,50,15.10
2008,08,23,00,51,15.00
2008,08,23,00,52,15.00
2008,08,23,00,53,15.00
2008,08,23,00,54,15.00
2008,08,23,00,55,15.00
2008,08,23,00,56,15.00
2008,08,23,00,57,15.00
2008,08,23,00,58,15.00
2008,08,23,00,59,15.00
2008,08,23,01,00,15.00
2008,08,23,01,01,15.00
2008,08,23,01,02,15.00
2008,08,23,01,03,15.00
2008,08,23,01,04,14.90
2008,08,23,01,05,14.90
2008,08,23,01,06,14.90
2008,08,23,01,07,14.90
2008,08,23,01,08,14.80
2008,08,23,01,09,14.80
2008,08,23,01,10,14.80
2008,08,23,01,11,14.80
2008,08,23,01,12,14.80
2008,08,23,01,13,14.80
2008,08,23,01,14,14.90
2008,08,23,01,15,14.90
2008,08,23,01,16,14.90
2008,08,23,01,17,14.90
2008,08,23,01,18,14.90
2008,08,23,01,19,14.90
2008,08,23,01,20,14.90
2008,08,23,01,21,14.90
2008,08,23,01,22,15.00
2008,08,23,01,23,15.00
2008,08,23,01,24,15.00
2008,08,23,01,25,15.00
2008,08,23,01,26,15.00
2008,08,23,01,27,15.00
2008,08,23,01,28,15.00
2008,08,23,01,29,15.00
2008,08,23,01,30,15.00
2008,08,23,01,31,15.00
2008,08,23,01,32,15.00
2008,08,23,01,33,15.00
2008,08,23,01,34,15.00
2008,08,23,01,35,15.00
2008,08,23,01,36,15.00
2008,08,23,01,37,15.10
2008,08,23,01,38,15.10
2008,08,23,01,39,15.10
2008,08,23,01,40,15.20
2008,08,23,01,41,15.20
2008,08,23,01,42,15.20
2008,08,23,01,43,15.30
2008,08,23,01,44,15.30
2008,08,23,01,45,15.30
2008,08,23,01,46,15.30
2008,08,23,01,47,15.30
2008,08,23,01,48,15.30
2008,08,23,01,49,15.30
2008,08,23,01,50,15.30
2008,08,23,01,51,15.30
2008,08,23,01,52,15.30
2008,08,23,01,53,15.30
2008,08,23,01,54,15.30
2008,08,23,01,55,15.30
2008,08,23,01,56,15.40
2008,08,23,01,57,15.40
2008,08,23,01,58,15.40
2008,08,23,01,59,15.40
2008,08,23,02,00,15.40
2008,08,23,02,01,15.40
2008,08,23,02,02,15.40
2008,08,23,02,03,15.40
2008,08,23,02,04,15.40
2008,08,23,02,05,15.40
2008,08,23,02,06,15.40
2008,08,23,02,07,15.40
2008,08,23,02,08,15.40
2008,08,23,02,09,15.40
2008,08,23,02,10,15.40
2008,08,23,02,11,15.40
2008,08,23,02,12,15.40
2008,08,23,02,13,15.40
2008,08,23,02,14,15.50
2008,08,23,02,15,15.50
2008,08,23,02,16,15.50
2008,08,23,02,17,15.50
2008,08,23,02,18,15.50
2008,08,23,02,19,15.50
2008,08,23,02,20,15.50
2008,08,23,02,21,15.50
2008,08,23,02,22,15.50
2008,08,23,02,23,15.50
2008,08,23,02,24,15.50
2008,08,23,02,25,15.50
2008,08,23,02,26,15.50
2008,08,23,02,27,15.50
2008,08,23,02,28,15.50
2008,08,23,02,29,15.50
2008,08,23,02,30,15.50
2008,08,23,02,31,15.50
2008,08,23,02,32,15.50
2008,08,23,02,33,15.50
2008,08,23,02,34,15.50
2008,08,23,02,35,15.60
2008,08,23,02,36,15.50
2008,08,23,02,37,15.60
2008,08,23,02,38,15.60
2008,08,23,02,39,15.60
2008,08,23,02,40,15.60
2008,08,23,02,41,15.60
2008,08,23,02,42,15.60
2008,08,23,02,43,15.60
2008,08,23,02,44,15.60
2008,08,23,02,45,15.60
2008,08,23,02,46,15.60
2008,08,23,02,47,15.60
2008,08,23,02,48,15.70
2008,08,23,02,49,15.70
2008,08,23,02,50,15.70
2008,08,23,02,51,15.70
2008,08,23,02,52,15.70
2008,08,23,02,53,15.70
2008,08,23,02,54,15.70
2008,08,23,02,55,15.70
2008,08,23,02,56,15.70
2008,08,23,02,57,15.70
2008,08,23,02,58,15.70
2008,08,23,02,59,15.70
2008,08,23,03,00,15.80
2008,08,23,03,01,15.80
2008,08,23,03,02,15.80
2008,08,23,03,03,15.80
2008,08,23,03,04,15.80
2008,08,23,03,05,15.80
2008,08,23,03,06,15.80
2008,08,23,03,07,15.80
2008,08,23,03,08,15.80
2008,08,23,03,09,15.80
2008,08,23,03,10,15.80
2008,08,23,03,11,15.80
2008,08,23,03,12,15.80
2008,08,23,03,13,15.80
2008,08,23,03,14,15.80
2008,08,23,03,15,15.80
2008,08,23,03,16,15.80
2008,08,23,03,17,15.80
2008,08,23,03,18,15.80
2008,08,23,03,19,15.80
2008,08,23,03,20,15.80
2008,08,23,03,21,15.80
2008,08,23,03,22,15.80
2008,08,23,03,23,15.80
2008,08,23,03,24,15.80
2008,08,23,03,25,15.80
2008,08,23,03,26,15.80
2008,08,23,03,27,15.80
2008,08,23,03,28,15.80
2008,08,23,03,29,15.80
2008,08,23,03,30,15.80
2008,08,23,03,31,15.80
2008,08,23,03,32,15.80
2008,08,23,03,33,15.90
2008,08,23,03,34,15.90
2008,08,23,03,35,15.90
2008,08,23,03,36,15.90
2008,08,23,03,37,15.90
2008,08,23,03,38,15.90
2008,08,23,03,39,15.90
2008,08,23,03,40,16.00
2008,08,23,03,41,16.00
2008,08,23,03,42,15.90
2008,08,23,03,43,15.90
2008,08,23,03,44,15.90
2008,08,23,03,45,15.90
2008,08,23,03,46,15.90
2008,08,23,03,47,15.90
2008,08,23,03,48,15.80
2008,08,23,03,49,15.80
2008,08,23,03,50,15.80
2008,08,23,03,51,15.80
2008,08,23,03,52,15.80
2008,08,23,03,53,15.80
2008,08,23,03,54,15.70
2008,08,23,03,55,15.70
2008,08,23,03,56,15.70
2008,08,23,03,57,15.70
2008,08,23,03,58,15.70
2008,08,23,03,59,15.70
2008,08,23,04,00,15.70
2008,08,23,04,01,15.70
2008,08,23,04,02,15.70
2008,08,23,04,03,15.70
2008,08,23,04,04,15.70
2008,08,23,04,05,15.80
2008,08,23,04,06,15.80
2008,08,23,04,07,15.80
2008,08,23,04,08,15.80
2008,08,23,04,09,15.80
2008,08,23,04,10,15.80
2008,08,23,04,11,15.80
2008,08,23,04,12,15.80
2008,08,23,04,13,15.80
2008,08,23,04,14,15.80
2008,08,23,04,15,15.80
2008,08,23,04,16,15.80
2008,08,23,04,17,15.80
2008,08,23,04,18,15.80
2008,08,23,04,19,15.80
2008,08,23,04,20,15.80
2008,08,23,04,21,15.80
2008,08,23,04,22,15.80
2008,08,23,04,23,15.80
2008,08,23,04,24,15.80
2008,08,23,04,25,15.90
2008,08,23,04,26,15.90
2008,08,23,04,27,15.90
2008,08,23,04,28,15.90
2008,08,23,04,29,15.90
2008,08,23,04,30,15.90
2008,08,23,04,31,15.90
2008,08,23,04,32,15.90
2008,08,23,04,33,15.90
2008,08,23,04,34,15.90
2008,08,23,04,35,15.90
2008,08,23,04,36,15.90
2008,08,23,04,37,15.90
2008,08,23,04,38,15.90
2008,08,23,04,39,15.90
2008,08,23,04,40,15.90
2008,08,23,04,41,15.90
2008,08,23,04,42,15.90
2008,08,23,04,43,15.90
2008,08,23,04,44,16.00
2008,08,23,04,45,16.00
2008,08,23,04,46,16.00
2008,08,23,04,47,16.00
2008,08,23,04,48,16.00
2008,08,23,04,49,16.00
2008,08,23,04,50,16.00
2008,08,23,04,51,16.00
2008,08,23,04,52,16.00
2008,08,23,04,53,16.00
2008,08,23,04,54,16.00
2008,08,23,04,55,16.00
2008,08,23,04,56,16.10
2008,08,23,04,57,16.10
2008,08,23,04,58,16.10
2008,08,23,04,59,16.10
2008,08,23,05,00,16.10
2008,08,23,05,01,16.10
2008,08,23,05,02,16.00
2008,08,23,05,03,16.00
2008,08,23,05,04,16.00
2008,08,23,05,05,16.00
2008,08,23,05,06,16.00
2008,08,23,05,07,16.00
2008,08,23,05,08,16.00
2008,08,23,05,09,16.00
2008,08,23,05,10,16.00
2008,08,23,05,11,16.00
2008,08,23,05,12,16.00
2008,08,23,05,13,15.90
2008,08,23,05,14,15.90
2008,08,23,05,15,15.90
2008,08,23,05,16,15.90
2008,08,23,05,17,15.90
2008,08,23,05,18,15.90
2008,08,23,05,19,16.00
2008,08,23,05,20,16.00
2008,08,23,05,21,16.00
2008,08,23,05,22,16.00
2008,08,23,05,23,15.90
2008,08,23,05,24,15.90
2008,08,23,05,25,15.90
2008,08,23,05,26,15.90
2008,08,23,05,27,15.90
2008,08,23,05,28,15.90
2008,08,23,05,29,15.90
2008,08,23,05,30,15.90
2008,08,23,05,31,15.90
2008,08,23,05,32,15.90
2008,08,23,05,33,15.90
2008,08,23,05,34,15.90
2008,08,23,05,35,15.90
2008,08,23,05,36,15.90
2008,08,23,05,37,15.80
2008,08,23,05,38,15.80
2008,08,23,05,39,15.80
2008,08,23,05,40,15.80
2008,08,23,05,41,15.80
2008,08,23,05,42,15.80
2008,08,23,05,43,15.80
2008,08,23,05,44,15.80
2008,08,23,05,45,15.80
2008,08,23,05,46,15.80
2008,08,23,05,47,15.80
2008,08,23,05,48,15.80
2008,08,23,05,49,15.80
2008,08,23,05,50,15.80
2008,08,23,05,51,15.80
2008,08,23,05,52,15.80
2008,08,23,05,53,15.90
2008,08,23,05,54,15.80
2008,08,23,05,55,15.80
2008,08,23,05,56,15.90
2008,08,23,05,57,15.90
2008,08,23,05,58,15.90
2008,08,23,05,59,15.90
2008,08,23,06,00,15.80
2008,08,23,06,01,15.80
2008,08,23,06,02,15.80
2008,08,23,06,03,15.80
2008,08,23,06,04,15.80
2008,08,23,06,05,15.80
2008,08,23,06,06,15.80
2008,08,23,06,07,15.80
2008,08,23,06,08,15.80
2008,08,23,06,09,15.80
2008,08,23,06,10,15.80
2008,08,23,06,11,15.80
2008,08,23,06,12,15.80
2008,08,23,06,13,15.80
2008,08,23,06,14,15.80
2008,08,23,06,15,15.80
2008,08,23,06,16,15.80
2008,08,23,06,17,15.80
2008,08,23,06,18,15.80
2008,08,23,06,19,15.80
2008,08,23,06,20,15.80
2008,08,23,06,21,15.80
2008,08,23,06,22,15.80
2008,08,23,06,23,15.80
2008,08,23,06,24,15.80
2008,08,23,06,25,15.80
2008,08,23,06,26,15.70
2008,08,23,06,27,15.70
2008,08,23,06,28,15.70
2008,08,23,06,29,15.70
2008,08,23,06,30,15.70
2008,08,23,06,31,15.70
2008,08,23,06,32,15.60
2008,08,23,06,33,15.60
2008,08,23,06,34,15.60
2008,08,23,06,35,15.60
2008,08,23,06,36,15.60
2008,08,23,06,37,15.60
2008,08,23,06,38,15.60
2008,08,23,06,39,15.60
2008,08,23,06,40,15.60
2008,08,23,06,41,15.60
2008,08,23,06,42,15.60
2008,08,23,06,43,15.60
2008,08,23,06,44,15.60
2008,08,23,06,45,15.60
2008,08,23,06,46,15.70
2008,08,23,06,47,15.60
2008,08,23,06,48,15.60
2008,08,23,06,49,15.60
2008,08,23,06,50,15.60
2008,08,23,06,51,15.60
2008,08,23,06,52,15.60
2008,08,23,06,53,15.60
2008,08,23,06,54,15.60
2008,08,23,06,55,15.60
2008,08,23,06,56,15.60
2008,08,23,06,57,15.60
2008,08,23,06,58,15.60
2008,08,23,06,59,15.70
2008,08,23,07,00,15.70
2008,08,23,07,01,15.70
2008,08,23,07,02,15.70
2008,08,23,07,03,15.70
2008,08,23,07,04,15.70
2008,08,23,07,05,15.70
2008,08,23,07,06,15.70
2008,08,23,07,07,15.70
2008,08,23,07,08,15.70
2008,08,23,07,09,15.70
2008,08,23,07,10,15.70
2008,08,23,07,11,15.70
2008,08,23,07,12,15.70
2008,08,23,07,13,15.70
2008,08,23,07,14,15.70
2008,08,23,07,15,15.70
2008,08,23,07,16,15.70
2008,08,23,07,17,15.70
2008,08,23,07,18,15.70
2008,08,23,07,19,15.70
2008,08,23,07,20,15.70
2008,08,23,07,21,15.70
2008,08,23,07,22,15.70
2008,08,23,07,23,15.70
2008,08,23,07,24,15.70
2008,08,23,07,25,15.70
2008,08,23,07,26,15.70
2008,08,23,07,27,15.70
2008,08,23,07,28,15.70
2008,08,23,07,29,15.70
2008,08,23,07,30,15.70
2008,08,23,07,31,15.70
2008,08,23,07,32,15.70
2008,08,23,07,33,15.70
2008,08,23,07,34,15.70
2008,08,23,07,35,15.70
2008,08,23,07,36,15.80
2008,08,23,07,37,15.80
2008,08,23,07,38,15.80
2008,08,23,07,39,15.80
2008,08,23,07,40,15.80
2008,08,23,07,41,15.90
2008,08,23,07,42,15.90
2008,08,23,07,43,16.00
2008,08,23,07,44,16.00
2008,08,23,07,45,16.00
2008,08,23,07,46,16.00
2008,08,23,07,47,16.10
2008,08,23,07,48,16.10
2008,08,23,07,49,16.10
2008,08,23,07,50,16.10
2008,08,23,07,51,16.10
2008,08,23,07,52,16.20
2008,08,23,07,53,16.20
2008,08,23,07,54,16.30
2008,08,23,07,55,16.30
2008,08,23,07,56,16.30
2008,08,23,07,57,16.40
2008,08,23,07,58,16.40
2008,08,23,07,59,16.50
2008,08,23,08,00,16.60
2008,08,23,08,01,16.70
2008,08,23,08,02,16.70
2008,08,23,08,03,16.80
2008,08,23,08,04,16.80
2008,08,23,08,05,16.80
2008,08,23,08,06,16.90
2008,08,23,08,07,16.90
2008,08,23,08,08,16.80
2008,08,23,08,09,16.80
2008,08,23,08,10,16.80
2008,08,23,08,11,16.80
2008,08,23,08,12,16.80
2008,08,23,08,13,16.90
2008,08,23,08,14,16.90
2008,08,23,08,15,16.90
2008,08,23,08,16,16.90
2008,08,23,08,17,16.90
2008,08,23,08,18,16.90
2008,08,23,08,19,16.90
2008,08,23,08,20,16.90
2008,08,23,08,21,16.80
2008,08,23,08,22,16.80
2008,08,23,08,23,16.80
2008,08,23,08,24,16.80
2008,08,23,08,25,16.80
2008,08,23,08,26,16.80
2008,08,23,08,27,16.80
2008,08,23,08,28,16.80
2008,08,23,08,29,16.80
2008,08,23,08,30,16.70
2008,08,23,08,31,16.70
2008,08,23,08,32,16.70
2008,08,23,08,33,16.70
2008,08,23,08,34,16.80
2008,08,23,08,35,16.80
2008,08,23,08,36,16.80
2008,08,23,08,37,16.80
2008,08,23,08,38,16.90
2008,08,23,08,39,16.90
2008,08,23,08,40,16.90
2008,08,23,08,41,16.90
2008,08,23,08,42,16.90
2008,08,23,08,43,16.90
2008,08,23,08,44,17.00
2008,08,23,08,45,17.00
2008,08,23,08,46,17.00
2008,08,23,08,47,17.10
2008,08,23,08,48,17.10
2008,08,23,08,49,17.10
2008,08,23,08,50,17.10
2008,08,23,08,51,17.10
2008,08,23,08,52,17.10
2008,08,23,08,53,17.10
2008,08,23,08,54,17.10
2008,08,23,08,55,17.20
2008,08,23,08,56,17.20
2008,08,23,08,57,17.20
2008,08,23,08,58,17.20
2008,08,23,08,59,17.20
2008,08,23,09,00,17.20
2008,08,23,09,01,17.20
2008,08,23,09,02,17.30
2008,08,23,09,03,17.30
2008,08,23,09,04,17.30
2008,08,23,09,05,17.30
2008,08,23,09,06,17.30
2008,08,23,09,07,17.40
2008,08,23,09,08,17.40
2008,08,23,09,09,17.40
2008,08,23,09,10,17.30
2008,08,23,09,11,17.30
2008,08,23,09,12,17.40
2008,08,23,09,13,17.40
2008,08,23,09,14,17.40
2008,08,23,09,15,17.40
2008,08,23,09,16,17.40
2008,08,23,09,17,17.40
2008,08,23,09,18,17.40
2008,08,23,09,19,17.50
2008,08,23,09,20,17.50
2008,08,23,09,21,17.50
2008,08,23,09,22,17.60
2008,08,23,09,23,17.60
2008,08,23,09,24,17.60
2008,08,23,09,25,17.60
2008,08,23,09,26,17.60
2008,08,23,09,27,17.60
2008,08,23,09,28,17.60
2008,08,23,09,29,17.60
2008,08,23,09,30,17.60
2008,08,23,09,31,17.70
2008,08,23,09,32,17.70
2008,08,23,09,33,17.70
2008,08,23,09,34,17.80
2008,08,23,09,35,17.80
2008,08,23,09,36,17.80
2008,08,23,09,37,17.80
2008,08,23,09,38,17.80
2008,08,23,09,39,17.80
2008,08,23,09,40,17.80
2008,08,23,09,41,17.80
2008,08,23,09,42,17.90
2008,08,23,09,43,17.90
2008,08,23,09,44,17.90
2008,08,23,09,45,17.90
2008,08,23,09,46,17.90
2008,08,23,09,47,18.00
2008,08,23,09,48,17.90
2008,08,23,09,49,17.90
2008,08,23,09,50,17.90
2008,08,23,09,51,17.90
2008,08,23,09,52,17.90
2008,08,23,09,53,17.90
2008,08,23,09,54,17.80
2008,08,23,09,55,17.80
2008,08,23,09,56,17.80
2008,08,23,09,57,17.80
2008,08,23,09,58,17.90
2008,08,23,09,59,18.00
2008,08,23,10,00,18.00
2008,08,23,10,01,18.10
2008,08,23,10,02,18.10
2008,08,23,10,03,18.20
2008,08,23,10,04,18.30
2008,08,23,10,05,18.40
2008,08,23,10,06,18.50
2008,08,23,10,07,18.60
2008,08,23,10,08,18.60
2008,08,23,10,09,18.70
2008,08,23,10,10,18.80
2008,08,23,10,11,18.80
2008,08,23,10,12,18.90
2008,08,23,10,13,18.90
2008,08,23,10,14,18.90
2008,08,23,10,15,18.90
2008,08,23,10,16,19.00
2008,08,23,10,17,19.10
2008,08,23,10,18,19.20
2008,08,23,10,19,19.20
2008,08,23,10,20,19.20
2008,08,23,10,21,19.20
2008,08,23,10,22,19.20
2008,08,23,10,23,19.30
2008,08,23,10,24,19.40
2008,08,23,10,25,19.50
2008,08,23,10,26,19.50
2008,08,23,10,27,19.60
2008,08,23,10,28,19.70
2008,08,23,10,29,19.70
2008,08,23,10,30,19.60
2008,08,23,10,31,19.50
2008,08,23,10,32,19.50
2008,08,23,10,33,19.40
2008,08,23,10,34,19.40
2008,08,23,10,35,19.40
2008,08,23,10,36,19.40
2008,08,23,10,37,19.40
2008,08,23,10,38,19.40
2008,08,23,10,39,19.30
2008,08,23,10,40,19.40
2008,08,23,10,41,19.40
2008,08,23,10,42,19.40
2008,08,23,10,43,19.40
2008,08,23,10,44,19.40
2008,08,23,10,45,19.40
2008,08,23,10,46,19.50
2008,08,23,10,47,19.50
2008,08,23,10,48,19.60
2008,08,23,10,49,19.70
2008,08,23,10,50,19.90
2008,08,23,10,51,20.00
2008,08,23,10,52,20.10
2008,08,23,10,53,20.30
2008,08,23,10,54,20.40
2008,08,23,10,55,20.50
2008,08,23,10,56,20.60
2008,08,23,10,57,20.60
2008,08,23,10,58,20.60
2008,08,23,10,59,20.60
2008,08,23,11,00,20.60
2008,08,23,11,01,20.60
2008,08,23,11,02,20.60
2008,08,23,11,03,20.60
2008,08,23,11,04,20.60
2008,08,23,11,05,20.50
2008,08,23,11,06,20.50
2008,08,23,11,07,20.40
2008,08,23,11,08,20.40
2008,08,23,11,09,20.40
2008,08,23,11,10,20.50
2008,08,23,11,11,20.50
2008,08,23,11,12,20.50
2008,08,23,11,13,20.50
2008,08,23,11,14,20.60
2008,08,23,11,15,20.70
2008,08,23,11,16,20.80
2008,08,23,11,17,20.80
2008,08,23,11,18,20.90
2008,08,23,11,19,21.00
2008,08,23,11,20,20.90
2008,08,23,11,21,20.90
2008,08,23,11,22,20.80
2008,08,23,11,23,20.80
2008,08,23,11,24,20.80
2008,08,23,11,25,20.80
2008,08,23,11,26,20.80
2008,08,23,11,27,20.80
2008,08,23,11,28,20.80
2008,08,23,11,29,20.80
2008,08,23,11,30,20.80
2008,08,23,11,31,20.90
2008,08,23,11,32,21.00
2008,08,23,11,33,20.90
2008,08,23,11,34,20.90
2008,08,23,11,35,20.90
2008,08,23,11,36,21.00
2008,08,23,11,37,21.10
2008,08,23,11,38,21.20
2008,08,23,11,39,21.30
2008,08,23,11,40,21.30
2008,08,23,11,41,21.40
2008,08,23,11,42,21.50
2008,08,23,11,43,21.60
2008,08,23,11,44,21.70
2008,08,23,11,45,21.70
2008,08,23,11,46,21.70
2008,08,23,11,47,21.70
2008,08,23,11,48,21.80
2008,08,23,11,49,21.80
2008,08,23,11,50,21.80
2008,08,23,11,51,21.60
2008,08,23,11,52,21.50
2008,08,23,11,53,21.40
2008,08,23,11,54,21.40
2008,08,23,11,55,21.40
2008,08,23,11,56,21.40
2008,08,23,11,57,21.40
2008,08,23,11,58,21.40
2008,08,23,11,59,21.50
2008,08,23,12,00,21.50
2008,08,23,12,01,21.60
2008,08,23,12,02,21.60
2008,08,23,12,03,21.60
2008,08,23,12,04,21.70
2008,08,23,12,05,21.60
2008,08,23,12,06,21.70
2008,08,23,12,07,21.70
2008,08,23,12,08,21.70
2008,08,23,12,09,21.60
2008,08,23,12,10,21.50
2008,08,23,12,11,21.50
2008,08,23,12,12,21.40
2008,08,23,12,13,21.50
2008,08,23,12,14,21.50
2008,08,23,12,15,21.50
2008,08,23,12,16,21.60
2008,08,23,12,17,21.70
2008,08,23,12,18,21.70
2008,08,23,12,19,21.70
2008,08,23,12,20,21.80
2008,08,23,12,21,21.90
2008,08,23,12,22,22.00
2008,08,23,12,23,22.10
2008,08,23,12,24,22.10
2008,08,23,12,25,22.20
2008,08,23,12,26,22.20
2008,08,23,12,27,22.10
2008,08,23,12,28,22.10
2008,08,23,12,29,22.10
2008,08,23,12,30,22.00
2008,08,23,12,31,22.00
2008,08,23,12,32,22.00
2008,08,23,12,33,22.00
2008,08,23,12,34,22.00
2008,08,23,12,35,22.00
2008,08,23,12,36,21.90
2008,08,23,12,37,21.90
2008,08,23,12,38,21.90
2008,08,23,12,39,22.00
2008,08,23,12,40,22.00
2008,08,23,12,41,22.00
2008,08,23,12,42,22.10
2008,08,23,12,43,22.10
2008,08,23,12,44,22.10
2008,08,23,12,45,22.10
2008,08,23,12,46,22.10
2008,08,23,12,47,22.10
2008,08,23,12,48,22.20
2008,08,23,12,49,22.30
2008,08,23,12,50,22.40
2008,08,23,12,51,22.40
2008,08,23,12,52,22.40
2008,08,23,12,53,22.50
2008,08,23,12,54,22.40
2008,08,23,12,55,22.40
2008,08,23,12,56,22.40
2008,08,23,12,57,22.50
2008,08,23,12,58,22.50
2008,08,23,12,59,22.50
2008,08,23,13,00,22.40
2008,08,23,13,01,22.30
2008,08,23,13,02,22.30
2008,08,23,13,03,22.30
2008,08,23,13,04,22.30
2008,08,23,13,05,22.20
2008,08,23,13,06,22.10
2008,08,23,13,07,22.00
2008,08,23,13,08,22.00
2008,08,23,13,09,21.90
2008,08,23,13,10,22.00
2008,08,23,13,11,22.00
2008,08,23,13,12,22.10
2008,08,23,13,13,22.10
2008,08,23,13,14,22.10
2008,08,23,13,15,22.10
2008,08,23,13,16,22.10
2008,08,23,13,17,22.10
2008,08,23,13,18,22.10
2008,08,23,13,19,22.10
2008,08,23,13,20,22.10
2008,08,23,13,21,22.10
2008,08,23,13,22,22.20
2008,08,23,13,23,22.20
2008,08,23,13,24,22.20
2008,08,23,13,25,22.30
2008,08,23,13,26,22.40
2008,08,23,13,27,22.50
2008,08,23,13,28,22.70
2008,08,23,13,29,22.70
2008,08,23,13,30,22.90
2008,08,23,13,31,23.00
2008,08,23,13,32,23.00
2008,08,23,13,33,23.10
2008,08,23,13,34,23.20
2008,08,23,13,35,23.20
2008,08,23,13,36,23.20
2008,08,23,13,37,23.20
2008,08,23,13,38,23.20
2008,08,23,13,39,23.10
2008,08,23,13,40,22.90
2008,08,23,13,41,22.80
2008,08,23,13,42,22.80
2008,08,23,13,43,22.70
2008,08,23,13,44,22.60
2008,08,23,13,45,22.60
2008,08,23,13,46,22.60
2008,08,23,13,47,22.80
2008,08,23,13,48,22.80
2008,08,23,13,49,22.80
2008,08,23,13,50,22.80
2008,08,23,13,51,22.80
2008,08,23,13,52,22.90
2008,08,23,13,53,22.90
2008,08,23,13,54,22.90
2008,08,23,13,55,22.80
2008,08,23,13,56,22.70
2008,08,23,13,57,22.60
2008,08,23,13,58,22.60
2008,08,23,13,59,22.60
2008,08,23,14,00,22.60
2008,08,23,14,01,22.60
2008,08,23,14,02,22.60
2008,08,23,14,03,22.50
2008,08,23,14,04,22.50
2008,08,23,14,05,22.50
2008,08,23,14,06,22.60
2008,08,23,14,07,22.70
2008,08,23,14,08,22.80
2008,08,23,14,09,22.90
2008,08,23,14,10,22.90
2008,08,23,14,11,22.90
2008,08,23,14,12,22.90
2008,08,23,14,13,22.90
2008,08,23,14,14,22.80
2008,08,23,14,15,22.80
2008,08,23,14,16,22.80
2008,08,23,14,17,22.80
2008,08,23,14,18,22.80
2008,08,23,14,19,22.80
2008,08,23,14,20,22.90
2008,08,23,14,21,22.80
2008,08,23,14,22,22.80
2008,08,23,14,23,22.80
2008,08,23,14,24,22.90
2008,08,23,14,25,23.00
2008,08,23,14,26,23.10
2008,08,23,14,27,23.00
2008,08,23,14,28,23.00
2008,08,23,14,29,23.00
2008,08,23,14,30,23.00
2008,08,23,14,31,23.10
2008,08,23,14,32,23.20
2008,08,23,14,33,23.30
2008,08,23,14,34,23.50
2008,08,23,14,35,23.70
2008,08,23,14,36,23.80
2008,08,23,14,37,23.90
2008,08,23,14,38,24.10
2008,08,23,14,39,24.20
2008,08,23,14,40,24.30
2008,08,23,14,41,24.30
2008,08,23,14,42,24.30
2008,08,23,14,43,24.40
2008,08,23,14,44,24.30
2008,08,23,14,45,24.30
2008,08,23,14,46,24.30
2008,08,23,14,47,24.20
2008,08,23,14,48,24.10
2008,08,23,14,49,24.00
2008,08,23,14,50,23.90
2008,08,23,14,51,23.90
2008,08,23,14,52,24.00
2008,08,23,14,53,24.00
2008,08,23,14,54,23.90
2008,08,23,14,55,23.90
2008,08,23,14,56,23.70
2008,08,23,14,57,23.60
2008,08,23,14,58,23.50
2008,08,23,14,59,23.50
2008,08,23,15,00,23.50
2008,08,23,15,01,23.60
2008,08,23,15,02,23.60
2008,08,23,15,03,23.60
2008,08,23,15,04,23.60
2008,08,23,15,05,23.60
2008,08,23,15,06,23.60
2008,08,23,15,07,23.60
2008,08,23,15,08,23.60
2008,08,23,15,09,23.60
2008,08,23,15,10,23.60
2008,08,23,15,11,23.80
2008,08,23,15,12,23.90
2008,08,23,15,13,24.00
2008,08,23,15,14,24.20
2008,08,23,15,15,24.30
2008,08,23,15,16,24.30
2008,08,23,15,17,24.40
2008,08,23,15,18,24.40
2008,08,23,15,19,24.40
2008,08,23,15,20,24.30
2008,08,23,15,21,24.10
2008,08,23,15,22,24.00
2008,08,23,15,23,23.80
2008,08,23,15,24,23.80
2008,08,23,15,25,23.70
2008,08,23,15,26,23.50
2008,08,23,15,27,23.30
2008,08,23,15,28,23.20
2008,08,23,15,29,23.10
2008,08,23,15,30,22.90
2008,08,23,15,31,22.80
2008,08,23,15,32,22.60
2008,08,23,15,33,22.50
2008,08,23,15,34,22.50
2008,08,23,15,35,22.40
2008,08,23,15,36,22.40
2008,08,23,15,37,22.30
2008,08,23,15,38,22.40
2008,08,23,15,39,22.30
2008,08,23,15,40,22.30
2008,08,23,15,41,22.30
2008,08,23,15,42,22.20
2008,08,23,15,43,22.20
2008,08,23,15,44,22.20
2008,08,23,15,45,22.20
2008,08,23,15,46,22.10
2008,08,23,15,47,22.20
2008,08,23,15,48,22.20
2008,08,23,15,49,22.20
2008,08,23,15,50,22.30
2008,08,23,15,51,22.30
2008,08,23,15,52,22.30
2008,08,23,15,53,22.20
2008,08,23,15,54,22.20
2008,08,23,15,55,22.20
2008,08,23,15,56,22.30
2008,08,23,15,57,22.40
2008,08,23,15,58,22.50
2008,08,23,15,59,22.60
2008,08,23,16,00,22.60
2008,08,23,16,01,22.70
2008,08,23,16,02,22.90
2008,08,23,16,03,22.90
2008,08,23,16,04,23.10
2008,08,23,16,05,23.10
2008,08,23,16,06,23.30
2008,08,23,16,07,23.50
2008,08,23,16,08,23.70
2008,08,23,16,09,23.80
2008,08,23,16,10,23.80
2008,08,23,16,11,23.90
2008,08,23,16,12,24.00
2008,08,23,16,13,24.10
2008,08,23,16,14,24.00
2008,08,23,16,15,24.00
2008,08,23,16,16,23.90
2008,08,23,16,17,23.90
2008,08,23,16,18,23.80
2008,08,23,16,19,23.80
2008,08,23,16,20,23.80
2008,08,23,16,21,23.80
2008,08,23,16,22,23.80
2008,08,23,16,23,23.70
2008,08,23,16,24,23.70
2008,08,23,16,25,23.80
2008,08,23,16,26,23.90
2008,08,23,16,27,24.00
2008,08,23,16,28,24.10
2008,08,23,16,29,24.10
2008,08,23,16,30,24.20
2008,08,23,16,31,24.20
2008,08,23,16,32,24.30
2008,08,23,16,33,24.30
2008,08,23,16,34,24.30
2008,08,23,16,35,24.30
2008,08,23,16,36,24.30
2008,08,23,16,37,24.30
2008,08,23,16,38,24.30
2008,08,23,16,39,24.30
2008,08,23,16,40,24.40
2008,08,23,16,41,24.40
2008,08,23,16,42,24.40
2008,08,23,16,43,24.40
2008,08,23,16,44,24.40
2008,08,23,16,45,24.40
2008,08,23,16,46,24.40
2008,08,23,16,47,24.30
2008,08,23,16,48,24.10
2008,08,23,16,49,24.00
2008,08,23,16,50,23.80
2008,08,23,16,51,23.70
2008,08,23,16,52,23.50
2008,08,23,16,53,23.20
2008,08,23,16,54,22.90
2008,08,23,16,55,22.80
2008,08,23,16,56,22.70
2008,08,23,16,57,22.60
2008,08,23,16,58,22.50
2008,08,23,16,59,22.30
2008,08,23,17,00,22.20
2008,08,23,17,01,22.20
2008,08,23,17,02,22.10
2008,08,23,17,03,22.00
2008,08,23,17,04,21.90
2008,08,23,17,05,21.80
2008,08,23,17,06,21.80
2008,08,23,17,07,21.70
2008,08,23,17,08,21.70
2008,08,23,17,09,21.60
2008,08,23,17,10,21.60
2008,08,23,17,11,21.50
2008,08,23,17,12,21.50
2008,08,23,17,13,21.50
2008,08,23,17,14,21.50
2008,08,23,17,15,21.50
2008,08,23,17,16,21.40
2008,08,23,17,17,21.50
2008,08,23,17,18,21.50
2008,08,23,17,19,21.50